Location: Newark
(60.6561°N, 46.5772°E)
Time: 21:15:09
(UTC+00:00)

Tiros 1 despin weight - Pass Details

Date: 25 October 2019
Orbit: 594 x 642 km, 48.2° (Epoch: 17 November)

Event Time Altitude Azimuth Distance (km) Brightness Sun altitude
Rises 21:01:21 0° 222° (SW) 2,920 - -41.4°
Reaches altitude 10° 21:04:31 10° 199° (SSW) 2,022 - -41.3°
Maximum altitude 21:07:11 15° 164° (SSE) 1,709 - -41.3°
Drops below altitude 10° 21:09:51 10° 129° (SE) 2,033 - -41.2°
Sets 21:13:02 0° 107° (ESE) 2,947 - -41.1°
